www.pogodaiklimat.ru

Погода и климат >> Архив погоды >> Казахстан >> Караганда


АРХИВ ПОГОДЫ в Караганде

Время (UTC), дата Ветер
(напр.,м/с)
 
Видим.   Явления Облачность Т
(С)
Тd
(С)
f
(%)
Тe
(С)
Тes
(С)
Комфортность P
(гПа)
Po
(гПа)
Тmin
(С)
Tmax
(С)
R
(мм)
R24
(мм)
S
(см)
03 15.10 ЮЗ 4 20 км 10/10 600 м
[Cb cap]
+4.5 +2.8 89 0 0 по сезону 1015.8 949.7
06 15.10 З 4 20 км 5/0
[Ac trans]
+10.0 +3.3 63 +8 +10 тепло 1015.4 950.6 +4.2 2
09 15.10 З 5 20 км 8/0
[Ac As]
+13.4 -0.6 38 +12 +13 тепло 1014.8 950.8
12 15.10 З 3 20 км 4/0
[Ac trans]
+12.1 -3.6 33 +11 +11 тепло 1015.8 951.4
15 15.10 СВ 1 20 км ясно +3.7 -1.4 69 +3 +3 по сезону 1018.5 952.1 +14.1
18 15.10 ЮВ 1 20 км ясно +1.8 -0.9 82 0 0 по сезону 1019.0 952.0 +14.1
21 15.10 В 2 20 км ясно +1.0 -1.8 82 -2 -2 по сезону 1018.9 951.8
00 16.10 ЮВ 1 20 км ясно -0.2 -2.9 82 -2 -2 по сезону 1019.3 951.9
03 16.10 штиль 0 20 км 4/0
[Ci fib]
+2.6 -1.8 73 +2 +2 по сезону 1019.4 952.7
06 16.10 Ю 2 20 км 8/0
[Ci fib]
+9.6 -1.1 47 +9 +13 тепло 1017.7 952.6 -1.1
09 16.10 ЮЗ 2 20 км 8/0
[Ci sp]
+14.0 -3.2 30 +14 +17 тепло 1015.9 951.9
12 16.10 штиль 0 20 км 9/0
[Ci sp]
+12.0 -3.4 34 +12 +12 тепло 1016.6 952.1
15 16.10 СВ 3 20 км ясно +7.7 -1.9 51 +5 +5 по сезону 1018.3 952.7 +14.0
18 16.10 В 3 20 км ясно +6.5 -1.0 59 +4 +4 тепло 1018.2 952.4 +14.0
21 16.10 В 1 20 км ясно +5.0 -1.3 64 +4 +4 тепло 1017.8 951.7
00 17.10 штиль 0 20 км ясно +3.8 -1.6 68 +3 +3 тепло 1017.5 951.1
03 17.10 В 2 20 км 6/3 1000 м
[Sc Ac trans]
+6.7 +0.5 65 +5 +5 тепло 1016.7 951.1
06 17.10 В 3 20 км 8/0
[Ac lent Ci]
+15.2 +3.4 45 +15 +17 тепло 1013.6 950.1 +3.2
09 17.10 ЮВ 4 20 км 8/3 600 м
[Cb cap Ac trans Ci sp]
+18.3 +0.7 31 +18 +19 тепло 1011.6 948.8
12 17.10 Ю 3 10 км слабый ливневой дождь 9/6 600 м
[Cb cap Ac trans]
+15.4 +2.6 42 +15 +15 тепло 1012.0 948.6
15 17.10 В 3 20 км {ливн. осадки} 8/5 1000 м
[Sc Ac trans]
+10.1 +5.7 74 +8 +8 тепло 1011.5 947.0 +18.4
18 17.10 ЮВ 3 20 км {ливн. осадки} 6/0
[Ac trans]
+9.4 +4.4 71 +7 +7 тепло 1009.8 945.3 +18.4 0.6
21 17.10 ЮВ 3 20 км 10/0
[Ac trans Cs]
+9.4 +3.9 68 +7 +7 тепло 1007.5 943.1
00 18.10 ЮВ 4 20 км 10/4 600 м
[Cb cap Ac und]
+11.2 +2.1 53 +9 +9 тепло 1006.3 942.4
03 18.10 Ю 3 10 км слабый ливневой дождь 10/10 600 м
[Cb cap]
+11.6 +2.1 52 +10 +10 тепло 1006.4 942.5
06 18.10 ЮЗ 4 10 км слабый ливневой дождь 10/10 600 м
[Cb cap]
+12.1 +5.7 65 +10 +10 тепло 1007.6 943.8 +8.8 0.0
09 18.10 ЮЗ 4 20 км {ливн. осадки} 10/8 600 м
[Cb cap Ac und]
+7.8 +2.7 70 +5 +5 по сезону 1011.0 946.0
12 18.10 ЮЗ 3 20 км {ливн. осадки} 10/8 600 м
[Cb cap Ac und]
+7.0 +1.7 69 +4 +4 по сезону 1013.1 947.8
15 18.10 Ю 4 20 км 9/9 1000 м
[Sc diur, vesp]
+5.6 +0.6 70 +2 +2 по сезону 1014.8 949.1 +12.6
18 18.10 Ю 4 20 км 8/8 600 м
[Cb cap]
+5.1 +0.6 73 +1 +1 по сезону 1014.8 948.9 +12.6 0.5
21 18.10 Ю 4 20 км {ливн. осадки} 9/9 600 м
[Cb cap]
+5.1 +0.9 74 +1 +1 по сезону 1013.6 947.8
00 19.10 Ю 5 20 км в посл. час ливневой дождь 10/10 600 м
[Cb cap]
+4.5 +1.8 83 -0 -0 по сезону 1011.9 946.1
03 19.10 Ю 8-15
{16}
10 км слабый ливневой дождь 10/10 300 м
[Cb cap]
+3.2 +1.2 87 -3 -3 прохладно 1010.6 944.6
06 19.10 Ю 8-15
{18}
10 км слабый ливневой дождь 10/10 300 м
[Cb cap]
+2.8 +1.0 88 -4 -4 холодно 1007.9 941.9 +3.2 0.9
09 19.10 ЮЗ 7-16
{19}
10 км слабый дождь {ливн. осадки} 10/10 300 м
[Frnb Ns]
+3.1 +1.6 90 -3 -3 холодно 1006.0 940.2
12 19.10 ЮЗ 7-15
{17}
10 км слабый дождь {ливн. осадки} 10/10 300 м
[Frnb Ns]
+3.5 +2.0 90 -3 -3 очень
холодно
1008.6 942.7
15 19.10 ЮЗ 6
{15}
10 км слабый дождь 10/10 300 м
[Frnb Ns]
+3.6 +2.1 90 -2 -2 прохладно 1012.5 946.5 +3.8
18 19.10 ЮЗ 6
{15}
10 км слабый дождь 10/10 300 м
[Frnb Ns]
+3.6 +2.1 90 -2 -2 по сезону 1014.6 948.4 +3.8 6
21 19.10 ЮЗ 4 10 км слабый снег {дождь} 10/10 300 м
[Frnb Ns]
+4.0 +3.1 94 -1 -1 по сезону 1014.5 948.4
00 20.10 ЮЗ 4 10 км слабый снег {дождь} 10/10 300 м
[Frnb Ns]
+6.0 +5.1 94 +2 +2 тепло 1014.7 949.1
03 20.10 ЮЗ 5 4000 м дымка {дождь, морось} 10/10 300 м
[St]
+6.2 +4.6 89 +2 +2 по сезону 1015.8 950.1
06 20.10 Ю 5 4000 м дымка {дождь, морось} 10/10 600 м
[St]
+6.5 +5.0 90 +2 +2 по сезону 1016.5 950.9 +2.5 2
09 20.10 ЮЗ 6 20 км в посл. час ливневой дождь 10/10 300 м
[Cb cap]
+6.5 +4.0 84 +2 +2 по сезону 1016.6 951.0
12 20.10 ЮЗ 4 20 км {ливн. осадки} 10/10 600 м
[Cb cap]
+7.1 +4.2 82 +4 +4 по сезону 1017.3 951.8
15 20.10 Ю 4 20 км в посл. час ливневой дождь 10/10 600 м
[Cb cap]
+7.7 +4.3 79 +4 +4 по сезону 1016.8 951.4 +7.7
18 20.10 Ю 4 20 км {ливн. осадки} 10/6 1000 м
[Sc Ac und]
+7.0 +4.8 86 +3 +3 тепло 1015.9 950.4 +7.7 0.6
21 20.10 Ю 4 20 км 10/10 600 м
[St]
+6.4 +4.6 88 +3 +3 тепло 1014.9 949.4
00 21.10 ЮЗ 4 20 км 10/10 1000 м
[Sc]
+6.2 +3.9 85 +2 +2 тепло 1013.9 948.3
03 21.10 ЮЗ 3 4000 м дымка {ливн. осадки} 10/10 600 м
[Cb cap]
+6.0 +4.2 88 +3 +3 по сезону 1013.9 948.3
06 21.10 Ю 4 4000 м дымка 10/10 1000 м
[Sc]
+7.0 +4.6 85 +3 +3 по сезону 1013.3 948.0 +5.7 0.0
09 21.10 ЮЗ 4 20 км 9/8 1000 м
[Sc Ac lent]
+8.9 +4.0 71 +6 +6 по сезону 1011.2 946.5
12 21.10 ЮЗ 2 20 км 9/9 1000 м
[Cb cap]
+9.6 +5.3 75 +8 +8 тепло 1010.5 946.0
15 21.10 ЮЗ 2 20 км 10/10 600 м
[Sc]
+8.3 +6.8 90 +6 +6 тепло 1011.2 946.4 +9.8
18 21.10 СЗ 2 4000 м слабый ливневой дождь 10/10 600 м
[Cb cap]
+7.3 +6.2 93 +5 +5 тепло 1011.4 946.3 +9.8
21 21.10 штиль 0 4000 м в посл. час ливневой дождь 10/10 300 м
[Cb cap]
+6.2 +5.3 94 +5 +5 тепло 1012.0 946.6
00 22.10 З 2 4000 м слабый ливневой дождь 10/10 300 м
[Cb cap]
+5.8 +4.7 93 +3 +3 тепло 1012.8 947.2

 

Местоположение метеостанции Караганда (Карагандинская область, Казахстан): широта 49.80 долгота 73.15 высота над уровнем моря 553 м.

В архиве по умолчанию представлена погода в Караганде за последнюю неделю. Архивные данные за месяц целиком и за предыдущие месяцы, начиная с января 2011 года, Вы можете получить, выбрав интересующий диапазон дат из раскрывающегося списка и нажав кнопку "Ввод!".

Внимание! Время в таблицах - всемирное. Для получения местного времени необходимо прибавить поправку, которая в Караганде равна 6 ч.

Смотрите также архив погоды в соседних городах и на ближайших метеорологических станциях:

Погода в Караганде-ШОС (Карагандинская область, Казахстан) (4 км)
Погода в Корнеевке (Карагандинская область, Казахстан) (11 км)
Погода в Темиртау (Карагандинская область, Казахстан) (33 км)
Погода в Топаре (Карагандинская область, Казахстан) (40 км)
Погода в Осакаровке (Карагандинская область, Казахстан) (94 км)
Погода в Молодежном (Карагандинская область, Казахстан) (107 км)
Погода в Бесобе (Карагандинская область, Казахстан) (108 км)
Погода в Жарыке (Карагандинская область, Казахстан) (108 км)
Погода в Кертинди (Карагандинская область, Казахстан) (114 км)
Погода в Киевке (Карагандинская область, Казахстан) (123 км)

Пояснения к столбцам:

Ветер - указаны скорость ветра в м/с - средняя за 10 мин, порывы в срок и между сроками (в фигурных скобках) и направление, откуда дует ветер: С - северный, СВ - северо-восточный, В - восточный, ЮВ - юго-восточный, Ю - южный, ЮЗ - юго-западный, З - западный, СЗ - северо-западный.
Видимость - горизонтальная дальность видимости в метрах или километрах. При видимости от 1 до 10 км при отсутствии осадков обычно наблюдается дымка, при ухудшении видимости до 1 км и менее - туман. В сухую погоду видимость может ухудшаться дымом, пылью или мглою.
Явления - указаны атмосферные явления, наблюдавшиеся в срок или в последний час перед сроком; фигурными скобками обозначены явления, наблюдавшиеся между сроками (за 1-3 часа до срока); квадратными скобками обозначены град или гололедные отложения с указанием их диаметра в мм.
Облачность - указаны через наклонную черту общая и нижняя облачность в баллах и высота нижней границы облаков в метрах; квадратными скобками обозначены формы облаков: Ci - перистые, Cs - перисто-слоистые, Cc - перисто-кучевые, Ac - высококучевые, As - высокослоистые, Sc - слоисто-кучевые, Ns - слоисто-дождевые, Cu - кучевые, Cb - кучево-дождевые. Подробнее классификацию облаков см. в Атласе облаков (PDF).
T - Температура воздуха - температура, измеренная на высоте 2 м над землей.
Td - Температура точки росы - температура, при понижении до которой содержащийся в воздухе водяной пар достигнет насыщения.
f - Относительная влажность воздуха - влажноcть воздуха, измеренная на высоте 2 м над землей.
Te - Эффективная температура - температура, которую ощущает одетый по сезону человек в тени. Характеристика душности погоды. При расчете учитывается влияние влажности воздуха и скорости ветра на теплоощущения человека.
Tes - Эффективная температура на солнце - температура, которую ощущает человек, с поправкой на солнечный нагрев. Характеристика знойности погоды. Зависит от высоты солнца над горизонтом, облачности и скорости ветра. Ночью, в пасмурную погоду, а также при ветре 12 м/с и более поправка равна нулю.
P - Атмосферное давление - приведенное к уровню моря атмосферное давление.
Po - Атмосферное давление - измеренное на уровне метеостанции атмосферное давление.
Tmin - Минимальная температура - минимум температуры воздуха на высоте 2 м над землей.
Tmax - Максимальная температура - максимум температуры воздуха на высоте 2 м над землей.
R - Количество осадков - Количество выпавших осадков за период времени, мм. При наведении курсора мыши на число - период времени, за который выпало указанное количество осадков.
R24 - Количество осадков - Количество выпавших осадков за 24 часа, мм.
S - Снежный покров - Высота снежного покрова, см. При наведении курсора мыши на число - состояние снежного покрова и степень покрытия местности в баллах.